Satellite: NO-44
Catalog number: 26931
Epoch time:      11348.66799452
Element set:    0921
Inclination:      067.0521 deg
RA of node:       238.4580 deg
Eccentricity:    0.0004984
Arg of perigee:   275.2117 deg
Mean anomaly:     084.8419 deg
Mean motion:   14.29736948 rev/day
Decay rate:        7.2e-07 rev/day^2
Epoch rev:           53272
Checksum:              333

Satellite: SO-50
Catalog number: 27607
Epoch time:      11348.52685875
Element set:     638
Inclination:      064.5564 deg
RA of node:       139.5585 deg
Eccentricity:    0.0083906
Arg of perigee:   284.6101 deg
Mean anomaly:     074.5651 deg
Mean motion:   14.72091435 rev/day
Decay rate:      1.307e-05 rev/day^2
Epoch rev:           48263
Checksum:              328

Satellite: CO-55
Catalog number: 27844
Epoch time:      11348.52227127
Element set:    0265
Inclination:      098.7048 deg
RA of node:       354.6064 deg
Eccentricity:    0.0010372
Arg of perigee:   041.2376 deg
Mean anomaly:     318.9563 deg
Mean motion:   14.20925556 rev/day
Decay rate:       4.91e-06 rev/day^2
Epoch rev:           43852
Checksum:              313

Satellite: CO-57
Catalog number: 27848
Epoch time:      11348.49428983
Element set:    0213
Inclination:      098.7113 deg
RA of node:       353.8340 deg
Eccentricity:    0.0010443
Arg of perigee:   046.9795 deg
Mean anomaly:     313.2267 deg
Mean motion:   14.20690416 rev/day
Decay rate:       4.21e-06 rev/day^2
Epoch rev:           43846
Checksum:              317

Satellite: AO-51
Catalog number: 28375
Epoch time:      11349.50558537
Element set:     144
Inclination:      098.1209 deg
RA of node:       318.6511 deg
Eccentricity:    0.0082730
Arg of perigee:   240.7355 deg
Mean anomaly:     118.5532 deg
Mean motion:   14.40870575 rev/day
Decay rate:       5.14e-06 rev/day^2
Epoch rev:           39217
Checksum:              304

Satellite: CP3
Catalog number: 31129
Epoch time:      11349.51922388
Element set:      44
Inclination:      097.8897 deg
RA of node:       003.1659 deg
Eccentricity:    0.0101356
Arg of perigee:   338.1643 deg
Mean anomaly:     021.5228 deg
Mean motion:   14.52788694 rev/day
Decay rate:      1.354e-05 rev/day^2
Epoch rev:           24716
Checksum:              314

Satellite: CO-65
Catalog number: 32785
Epoch time:      11348.59843517
Element set:    0176
Inclination:      097.8281 deg
RA of node:       048.8531 deg
Eccentricity:    0.0014000
Arg of perigee:   311.6617 deg
Mean anomaly:     048.3420 deg
Mean motion:   14.82520756 rev/day
Decay rate:      2.211e-05 rev/day^2
Epoch rev:           19626
Checksum:              303

Satellite: PRISM
Catalog number: 33493
Epoch time:      11349.77270656
Element set:     239
Inclination:      098.1462 deg
RA of node:       121.3919 deg
Eccentricity:    0.0019624
Arg of perigee:   172.1988 deg
Mean anomaly:     187.9505 deg
Mean motion:   14.82852484 rev/day
Decay rate:      5.859e-05 rev/day^2
Epoch rev:           15641
Checksum:              341

Satellite: SOHLA-1
Catalog number: 33496
Epoch time:      11348.80996273
Element set:    0604
Inclination:      098.0938 deg
RA of node:       096.9723 deg
Eccentricity:    0.0005604
Arg of perigee:   271.6163 deg
Mean anomaly:     088.4392 deg
Mean motion:   14.69808249 rev/day
Decay rate:       7.73e-06 rev/day^2
Epoch rev:           15501
Checksum:              335

Satellite: TISAT-1
Catalog number: 36799
Epoch time:      11348.89155135
Element set:    0507
Inclination:      098.0840 deg
RA of node:       058.8002 deg
Eccentricity:    0.0016049
Arg of perigee:   055.7221 deg
Mean anomaly:     304.5474 deg
Mean motion:   14.81293594 rev/day
Decay rate:      3.509e-05 rev/day^2
Epoch rev:           07705
Checksum:              313

Satellite: STUDSAT
Catalog number: 36801
Epoch time:      11349.79017341
Element set:     300
Inclination:      098.0912 deg
RA of node:       059.7853 deg
Eccentricity:    0.0013672
Arg of perigee:   038.7901 deg
Mean anomaly:     321.4273 deg
Mean motion:   14.82545619 rev/day
Decay rate:      8.962e-05 rev/day^2
Epoch rev:            7718
Checksum:              307

Satellite: OOREOS
Catalog number: 37224
Epoch time:      11330.25217324
Element set:    0033
Inclination:      071.9741 deg
RA of node:       041.3371 deg
Eccentricity:    0.0020052
Arg of perigee:   337.4654 deg
Mean anomaly:     022.5620 deg
Mean motion:   14.77385090 rev/day
Decay rate:      2.151e-05 rev/day^2
Epoch rev:           00594
Checksum:              243

Satellite: FO-69
Catalog number: 37227
Epoch time:      11348.45842189
Element set:    0049
Inclination:      071.9698 deg
RA of node:       001.7270 deg
Eccentricity:    0.0018505
Arg of perigee:   302.4603 deg
Mean anomaly:     057.4753 deg
Mean motion:   14.76846348 rev/day
Decay rate:      1.165e-05 rev/day^2
Epoch rev:           00867
Checksum:              326

Satellite: NANOSALD
Catalog number: 37361
Epoch time:      11242.25215765
Element set:    0351
Inclination:      071.9735 deg
RA of node:       221.4469 deg
Eccentricity:    0.0025730
Arg of perigee:   245.3422 deg
Mean anomaly:     114.7284 deg
Mean motion:   15.22200108 rev/day
Decay rate:    1.80112e-03 rev/day^2
Epoch rev:           03331
Checksum:              248

